Location: Jetmore
(38.0845°N, 99.8935°W)
Time: 20:38:12
(UTC+00:00)

Cosmos 1703 - Pass Details

Date: 29 October 2020
Orbit: 525 x 538 km, 82.5° (Epoch: 30 November)

Event Time Altitude Azimuth Distance (km) Brightness Sun altitude
Rises 12:10:26 0° 176° (S) 2,642 7.0 -10.9°
Reaches altitude 10° 12:12:35 10° 172° (S) 1,759 6.1 -10.5°
Maximum altitude 12:16:21 55° 94° (E) 640 4.1 -9.7°
Drops below altitude 10° 12:20:10 10° 17° (NNE) 1,778 6.0 -9.0°
Sets 12:22:21 0° 13° (NNE) 2,675 6.9 -8.6°
